| time (UTC) | temp C | wind direction | speed KPH | gust KPH | rain 1hr cm | rain 24hr cm | rain mn cm | humidity % | barometer mb |
| 20260504045548 | 8 | 254 | 0.0 | 4.8 | 0.00 | 0.00 | 0.00 | 62 | 1008.5 |
| 20260504045015 | 8 | 254 | 1.6 | 6.4 | 0.00 | 0.00 | 0.00 | 62 | 1008.5 |
| 20260504044621 | 8 | 257 | 1.6 | 6.4 | 0.00 | 0.00 | 0.00 | 62 | 1008.5 |
| 20260504044049 | 8 | 258 | 1.6 | 6.4 | 0.00 | 0.00 | 0.00 | 63 | 1008.5 |
| 20260504043529 | 8 | 257 | 1.6 | 6.4 | 0.00 | 0.00 | 0.00 | 63 | 1008.5 |
| 20260504043113 | 8 | 360 | 0.0 | 4.8 | 0.00 | 0.00 | 0.00 | 64 | 1008.6 |
| 20260504042550 | 8 | 360 | 0.0 | 6.4 | 0.00 | 0.00 | 0.00 | 64 | 1008.6 |
| 20260504042030 | 8 | 254 | 0.0 | 6.4 | 0.00 | 0.00 | 0.00 | 64 | 1008.6 |
| 20260504041612 | 8 | 242 | 1.6 | 4.8 | 0.00 | 0.00 | 0.00 | 64 | 1008.6 |
| 20260504041053 | 8 | 241 | 1.6 | 3.2 | 0.00 | 0.00 | 0.00 | 64 | 1008.7 |
| 20260504040523 | 8 | 241 | 1.6 | 4.8 | 0.00 | 0.00 | 0.00 | 65 | 1008.7 |
| 20260504040002 | 8 | 241 | 0.0 | 1.6 | 0.00 | 0.00 | 0.00 | 64 | 1008.7 |
| 20260504035557 | 8 | 240 | 0.0 | 3.2 | 0.00 | 0.00 | 0.00 | 64 | 1008.6 |
| 20260504035036 | 8 | 240 | 1.6 | 4.8 | 0.00 | 0.00 | 0.00 | 64 | 1008.6 |
| 20260504034506 | 8 | 240 | 1.6 | 4.8 | 0.00 | 0.00 | 0.00 | 64 | 1008.6 |
| 20260504034059 | 8 | 279 | 0.0 | 0.0 | 0.00 | 0.00 | 0.00 | 64 | 1008.6 |
| 20260504033540 | 8 | 279 | 0.0 | 0.0 | 0.00 | 0.00 | 0.00 | 62 | 1008.6 |
| 20260504033013 | 8 | 279 | 0.0 | 0.0 | 0.00 | 0.00 | 0.00 | 62 | 1008.6 |
| 20260504032602 | 9 | 279 | 0.0 | 0.0 | 0.00 | 0.00 | 0.00 | 61 | 1008.6 |
| 20260504032042 | 9 | 279 | 0.0 | 0.0 | 0.00 | 0.00 | 0.00 | 60 | 1008.7 |
| 20260504031523 | 10 | 279 | 0.0 | 1.6 | 0.00 | 0.00 | 0.00 | 58 | 1008.8 |
| 20260504031105 | 10 | 279 | 0.0 | 3.2 | 0.00 | 0.00 | 0.00 | 57 | 1008.8 |
| 20260504030547 | 10 | 279 | 0.0 | 3.2 | 0.00 | 0.00 | 0.00 | 57 | 1008.8 |
| 20260504030017 | 10 | 280 | 0.0 | 0.0 | 0.00 | 0.00 | 0.00 | 56 | 1008.8 |
| 20260504025609 | 10 | 280 | 0.0 | 0.0 | 0.00 | 0.00 | 0.00 | 55 | 1008.7 |
| 20260504025050 | 11 | 280 | 0.0 | 3.2 | 0.00 | 0.00 | 0.00 | 54 | 1008.6 |
| 20260504024532 | 11 | 280 | 0.0 | 9.7 | 0.00 | 0.00 | 0.00 | 53 | 1008.7 |
| 20260504024000 | 11 | 280 | 1.6 | 9.7 | 0.00 | 0.00 | 0.00 | 51 | 1008.7 |
| 20260504023553 | 11 | 255 | 1.6 | 6.4 | 0.00 | 0.00 | 0.00 | 52 | 1008.7 |
| 20260504023034 | 11 | 246 | 1.6 | 11.3 | 0.00 | 0.00 | 0.00 | 51 | 1008.7 |
| 20260504022507 | 11 | 284 | 3.2 | 12.9 | 0.00 | 0.00 | 0.00 | 51 | 1008.7 |
| 20260504022100 | 11 | 226 | 3.2 | 12.9 | 0.00 | 0.00 | 0.00 | 50 | 1008.8 |
| 20260504021539 | 11 | 300 | 3.2 | 11.3 | 0.00 | 0.00 | 0.00 | 50 | 1008.9 |
| 20260504021007 | 11 | 228 | 3.2 | 14.5 | 0.00 | 0.00 | 0.00 | 50 | 1008.9 |
| 20260504020558 | 11 | 238 | 4.8 | 16.1 | 0.00 | 0.00 | 0.00 | 51 | 1008.9 |
| 20260504020038 | 11 | 360 | 3.2 | 16.1 | 0.00 | 0.00 | 0.00 | 51 | 1009.0 |
| 20260504015510 | 11 | 360 | 3.2 | 14.5 | 0.00 | 0.00 | 0.00 | 51 | 1009.0 |
| 20260504015102 | 11 | 360 | 4.8 | 9.7 | 0.00 | 0.00 | 0.00 | 51 | 1009.0 |
| 20260504014545 | 12 | 360 | 3.2 | 9.7 | 0.00 | 0.00 | 0.00 | 51 | 1009.0 |
| 20260504014014 | 12 | 360 | 3.2 | 14.5 | 0.00 | 0.00 | 0.00 | 50 | 1009.1 |
| 20260504013608 | 12 | 360 | 3.2 | 14.5 | 0.00 | 0.00 | 0.00 | 49 | 1009.2 |
| 20260504013053 | 12 | 360 | 3.2 | 8.0 | 0.00 | 0.00 | 0.00 | 48 | 1009.1 |
| 20260504012529 | 12 | 360 | 3.2 | 8.0 | 0.00 | 0.00 | 0.00 | 48 | 1009.2 |
| 20260504012109 | 12 | 360 | 3.2 | 16.1 | 0.00 | 0.00 | 0.00 | 47 | 1009.1 |
| 20260504011549 | 12 | 360 | 1.6 | 20.9 | 0.00 | 0.00 | 0.00 | 47 | 1009.0 |
| 20260504011019 | 12 | 360 | 8.0 | 19.3 | 0.00 | 0.00 | 0.00 | 47 | 1008.9 |
| 20260504010612 | 12 | 360 | 4.8 | 24.1 | 0.00 | 0.00 | 0.00 | 47 | 1008.9 |
| 20260504010101 | 12 | 34 | 6.4 | 24.1 | 0.00 | 0.00 | 0.00 | 48 | 1008.8 |
| 20260504005533 | 12 | 360 | 3.2 | 20.9 | 0.00 | 0.00 | 0.00 | 49 | 1008.9 |
| 20260504005006 | 12 | 360 | 8.0 | 20.9 | 0.00 | 0.00 | 0.00 | 49 | 1009.1 |
| 20260504004608 | 12 | 41 | 6.4 | 19.3 | 0.00 | 0.00 | 0.00 | 49 | 1009.0 |
| 20260504004037 | 12 | 360 | 3.2 | 19.3 | 0.00 | 0.00 | 0.00 | 50 | 1009.2 |
| 20260504003508 | 12 | 360 | 4.8 | 24.1 | 0.00 | 0.00 | 0.00 | 49 | 1009.3 |
| 20260504003100 | 12 | 360 | 6.4 | 29.0 | 0.00 | 0.00 | 0.00 | 48 | 1009.3 |
| 20260504002539 | 12 | 360 | 8.0 | 29.0 | 0.00 | 0.00 | 0.00 | 48 | 1009.4 |
| 20260504002014 | 12 | 45 | 3.2 | 25.7 | 0.00 | 0.00 | 0.00 | 48 | 1009.4 |
| 20260504001609 | 12 | 360 | 8.0 | 25.7 | 0.00 | 0.00 | 0.00 | 46 | 1009.3 |
| 20260504001042 | 12 | 360 | 6.4 | 37.0 | 0.00 | 0.00 | 0.00 | 47 | 1009.2 |
| 20260504000511 | 12 | 42 | 4.8 | 25.7 | 0.00 | 0.00 | 0.00 | 47 | 1009.2 |
| 20260504000134 | 12 | 360 | 11.3 | 25.7 | 0.00 | 0.00 | 0.00 | 46 | 1009.5 |
| 20260503235543 | 12 | 360 | 4.8 | 20.9 | 0.00 | 0.00 | 0.00 | 46 | 1009.3 |
| 20260503235014 | 12 | 360 | 1.6 | 14.5 | 0.00 | 0.00 | 0.00 | 47 | 1009.4 |
| 20260503234607 | 12 | 360 | 3.2 | 12.9 | 0.00 | 0.00 | 0.00 | 46 | 1009.1 |
| 20260503234048 | 12 | 22 | 3.2 | 17.7 | 0.00 | 0.00 | 0.00 | 45 | 1009.1 |
| 20260503233527 | 11 | 360 | 3.2 | 17.7 | 0.00 | 0.00 | 0.00 | 46 | 1009.1 |
| 20260503233111 | 11 | 213 | 3.2 | 9.7 | 0.00 | 0.00 | 0.00 | 47 | 1009.2 |
| 20260503232550 | 11 | 360 | 4.8 | 20.9 | 0.00 | 0.00 | 0.00 | 47 | 1009.2 |
| 20260503232019 | 12 | 360 | 3.2 | 20.9 | 0.00 | 0.00 | 0.00 | 47 | 1009.2 |
| 20260503231612 | 12 | 360 | 4.8 | 29.0 | 0.00 | 0.00 | 0.00 | 47 | 1009.2 |
| 20260503231053 | 12 | 360 | 8.0 | 29.0 | 0.00 | 0.00 | 0.00 | 46 | 1009.5 |
| 20260503230526 | 12 | 360 | 6.4 | 20.9 | 0.00 | 0.00 | 0.00 | 45 | 1009.4 |
| 20260503230113 | 12 | 360 | 6.4 | 35.4 | 0.00 | 0.00 | 0.00 | 45 | 1009.3 |
| 20260503225550 | 12 | 29 | 8.0 | 35.4 | 0.00 | 0.00 | 0.00 | 46 | 1009.3 |
| 20260503225033 | 12 | 360 | 6.4 | 17.7 | 0.00 | 0.00 | 0.00 | 45 | 1009.2 |
| 20260503224612 | 12 | 360 | 4.8 | 20.9 | 0.00 | 0.00 | 0.00 | 47 | 1009.3 |
| 20260503224054 | 12 | 360 | 4.8 | 27.4 | 0.00 | 0.00 | 0.00 | 46 | 1009.3 |
| 20260503223524 | 12 | 360 | 6.4 | 27.4 | 0.00 | 0.00 | 0.00 | 45 | 1009.0 |
| 20260503223004 | 13 | 355 | 8.0 | 19.3 | 0.00 | 0.00 | 0.00 | 43 | 1009.1 |
| 20260503222556 | 13 | 235 | 4.8 | 22.5 | 0.00 | 0.00 | 0.00 | 44 | 1008.9 |
| 20260503222035 | 13 | 34 | 6.4 | 22.5 | 0.00 | 0.00 | 0.00 | 41 | 1009.0 |
| 20260503221505 | 13 | 96 | 6.4 | 17.7 | 0.00 | 0.00 | 0.00 | 42 | 1009.0 |
| 20260503221056 | 13 | 78 | 4.8 | 17.7 | 0.00 | 0.00 | 0.00 | 40 | 1008.9 |
| 20260503220536 | 13 | 351 | 6.4 | 19.3 | 0.00 | 0.00 | 0.00 | 41 | 1008.7 |
| 20260503220005 | 13 | 342 | 6.4 | 19.3 | 0.00 | 0.00 | 0.00 | 39 | 1008.8 |
| 20260503215557 | 13 | 32 | 4.8 | 20.9 | 0.00 | 0.00 | 0.00 | 40 | 1008.8 |
| 20260503215040 | 13 | 56 | 9.7 | 24.1 | 0.00 | 0.00 | 0.00 | 39 | 1008.8 |
| 20260503214515 | 13 | 18 | 9.7 | 24.1 | 0.00 | 0.00 | 0.00 | 39 | 1008.7 |
| 20260503214103 | 14 | 247 | 3.2 | 19.3 | 0.00 | 0.00 | 0.00 | 41 | 1008.9 |
| 20260503213542 | 14 | 49 | 4.8 | 24.1 | 0.00 | 0.00 | 0.00 | 39 | 1008.7 |
| 20260503213013 | 14 | 39 | 6.4 | 24.1 | 0.00 | 0.00 | 0.00 | 39 | 1008.8 |
| 20260503212605 | 14 | 297 | 4.8 | 14.5 | 0.00 | 0.00 | 0.00 | 40 | 1008.7 |
| 20260503212045 | 14 | 355 | 8.0 | 25.7 | 0.00 | 0.00 | 0.00 | 39 | 1008.5 |
| 20260503211526 | 15 | 14 | 9.7 | 25.7 | 0.00 | 0.00 | 0.00 | 38 | 1008.6 |
| 20260503211112 | 15 | 293 | 6.4 | 22.5 | 0.00 | 0.00 | 0.00 | 39 | 1008.5 |
| 20260503210549 | 15 | 36 | 3.2 | 22.5 | 0.00 | 0.00 | 0.00 | 39 | 1008.6 |
| 20260503210020 | 15 | 329 | 4.8 | 22.5 | 0.00 | 0.00 | 0.00 | 40 | 1008.6 |
| 20260503205614 | 15 | 27 | 4.8 | 29.0 | 0.00 | 0.00 | 0.00 | 40 | 1008.6 |
| 20260503205053 | 15 | 147 | 4.8 | 29.0 | 0.00 | 0.00 | 0.00 | 40 | 1008.6 |
| 20260503204534 | 15 | 317 | 4.8 | 14.5 | 0.00 | 0.00 | 0.00 | 38 | 1008.7 |
| 20260503204002 | 15 | 340 | 3.2 | 20.9 | 0.00 | 0.00 | 0.00 | 41 | 1008.8 |
| 20260503203554 | 15 | 355 | 6.4 | 20.9 | 0.00 | 0.00 | 0.00 | 38 | 1008.9 |
| 20260503203040 | 15 | 63 | 4.8 | 17.7 | 0.00 | 0.00 | 0.00 | 41 | 1009.0 |
| 20260503202506 | 15 | 123 | 4.8 | 16.1 | 0.00 | 0.00 | 0.00 | 41 | 1009.0 |
| 20260503202059 | 14 | 325 | 3.2 | 22.5 | 0.00 | 0.00 | 0.00 | 39 | 1009.0 |
| 20260503201543 | 14 | 38 | 6.4 | 22.5 | 0.00 | 0.00 | 0.00 | 39 | 1009.1 |
| 20260503201009 | 14 | 306 | 6.4 | 22.5 | 0.00 | 0.00 | 0.00 | 37 | 1009.1 |
| 20260503200600 | 14 | 49 | 8.0 | 17.7 | 0.00 | 0.00 | 0.00 | 39 | 1009.1 |
| 20260503200041 | 14 | 13 | 4.8 | 17.7 | 0.00 | 0.00 | 0.00 | 39 | 1009.2 |
| 20260503195509 | 13 | 321 | 4.8 | 17.7 | 0.00 | 0.00 | 0.00 | 41 | 1009.1 |
| 20260503195100 | 13 | 101 | 3.2 | 14.5 | 0.00 | 0.00 | 0.00 | 40 | 1009.3 |
| 20260503194540 | 13 | 310 | 4.8 | 19.3 | 0.00 | 0.00 | 0.00 | 41 | 1009.4 |
| 20260503194007 | 13 | 333 | 8.0 | 19.3 | 0.00 | 0.00 | 0.00 | 40 | 1009.4 |
| 20260503193558 | 13 | 327 | 3.2 | 12.9 | 0.00 | 0.00 | 0.00 | 43 | 1009.7 |
| 20260503193043 | 12 | 60 | 1.6 | 19.3 | 0.00 | 0.00 | 0.00 | 43 | 1009.7 |
| 20260503192508 | 12 | 30 | 8.0 | 19.3 | 0.00 | 0.00 | 0.00 | 40 | 1009.9 |
| 20260503192100 | 12 | 184 | 1.6 | 12.9 | 0.00 | 0.00 | 0.00 | 39 | 1009.8 |
| 20260503191541 | 12 | 117 | 1.6 | 19.3 | 0.00 | 0.00 | 0.00 | 41 | 1009.9 |
| 20260503191012 | 12 | 28 | 4.8 | 19.3 | 0.00 | 0.00 | 0.00 | 42 | 1010.1 |
| 20260503190605 | 12 | 45 | 4.8 | 12.9 | 0.00 | 0.00 | 0.00 | 40 | 1010.1 |
| 20260503190046 | 12 | 62 | 4.8 | 14.5 | 0.00 | 0.00 | 0.00 | 40 | 1010.2 |
| 20260503185512 | 12 | 63 | 4.8 | 16.1 | 0.00 | 0.00 | 0.00 | 42 | 1010.3 |
| 20260503185105 | 12 | 67 | 3.2 | 11.3 | 0.00 | 0.00 | 0.00 | 39 | 1010.4 |
| 20260503184553 | 13 | 319 | 3.2 | 14.5 | 0.00 | 0.00 | 0.00 | 41 | 1010.5 |
| 20260503184026 | 13 | 351 | 4.8 | 14.5 | 0.00 | 0.00 | 0.00 | 41 | 1010.6 |
| 20260503183609 | 13 | 19 | 3.2 | 12.9 | 0.00 | 0.00 | 0.00 | 45 | 1010.6 |
| 20260503183049 | 12 | 69 | 3.2 | 14.5 | 0.00 | 0.00 | 0.00 | 43 | 1010.7 |
| 20260503182517 | 12 | 78 | 4.8 | 14.5 | 0.00 | 0.00 | 0.00 | 41 | 1010.7 |
| 20260503182107 | 11 | 277 | 4.8 | 12.9 | 0.00 | 0.00 | 0.00 | 45 | 1010.8 |
| 20260503181549 | 11 | 52 | 4.8 | 14.5 | 0.00 | 0.00 | 0.00 | 42 | 1011.0 |
| 20260503181031 | 11 | 168 | 4.8 | 17.7 | 0.00 | 0.00 | 0.00 | 44 | 1011.0 |
| 20260503180503 | 11 | 180 | 3.2 | 17.7 | 0.00 | 0.00 | 0.00 | 42 | 1011.2 |
| 20260503180105 | 11 | 5 | 4.8 | 12.9 | 0.00 | 0.00 | 0.00 | 43 | 1011.2 |
| 20260503175523 | 11 | 211 | 4.8 | 19.3 | 0.00 | 0.00 | 0.00 | 44 | 1011.5 |
| 20260503175003 | 11 | 30 | 6.4 | 19.3 | 0.00 | 0.00 | 0.00 | 41 | 1011.5 |
| 20260503174556 | 11 | 12 | 3.2 | 19.3 | 0.00 | 0.00 | 0.00 | 44 | 1011.4 |
| 20260503174038 | 11 | 50 | 6.4 | 19.3 | 0.00 | 0.00 | 0.00 | 43 | 1011.5 |
| 20260503173507 | 11 | 35 | 6.4 | 24.1 | 0.00 | 0.00 | 0.00 | 45 | 1011.7 |
| 20260503173111 | 11 | 315 | 4.8 | 24.1 | 0.00 | 0.00 | 0.00 | 43 | 1011.7 |
| 20260503172537 | 11 | 67 | 4.8 | 17.7 | 0.00 | 0.00 | 0.00 | 46 | 1011.8 |
| 20260503172006 | 11 | 70 | 4.8 | 19.3 | 0.00 | 0.00 | 0.00 | 40 | 1011.7 |
| 20260503171559 | 11 | 56 | 6.4 | 20.9 | 0.00 | 0.00 | 0.00 | 39 | 1011.8 |
| 20260503171040 | 11 | 43 | 6.4 | 20.9 | 0.00 | 0.00 | 0.00 | 39 | 1011.7 |
| 20260503170508 | 11 | 34 | 6.4 | 16.1 | 0.00 | 0.00 | 0.00 | 39 | 1011.7 |
| 20260503170112 | 11 | 49 | 8.0 | 17.7 | 0.00 | 0.00 | 0.00 | 38 | 1011.8 |
| 20260503160117 | 10 | 91 | 4.8 | 19.3 | 0.00 | 0.00 | 0.00 | 47 | 1012.4 |
| 20260503150516 | 9 | 309 | 3.2 | 14.5 | 0.00 | 0.00 | 0.00 | 56 | 1012.6 |
| 20260503150109 | 8 | 23 | 3.2 | 14.5 | 0.00 | 0.00 | 0.00 | 55 | 1012.6 |
| 20260503131104 | 6 | 288 | 1.6 | 8.0 | 0.00 | 0.00 | 0.00 | 63 | 1013.6 |
| 20260503130544 | 6 | 277 | 1.6 | 14.5 | 0.00 | 0.00 | 0.00 | 64 | 1013.6 |
| 20260503110608 | 1 | 311 | 0.0 | 4.8 | 0.00 | 0.00 | 0.00 | 81 | 1013.7 |
| 20260503090504 | 0 | 338 | 0.0 | 3.2 | 0.00 | 0.00 | 0.00 | 89 | 1013.2 |
| 20260503081601 | 1 | 336 | 0.0 | 1.6 | 0.00 | 0.00 | 0.00 | 86 | 1013.3 |
| 20260503081043 | 1 | 338 | 0.0 | 3.2 | 0.00 | 0.00 | 0.00 | 86 | 1013.3 |
| 20260503080512 | 1 | 338 | 0.0 | 3.2 | 0.00 | 0.00 | 0.00 | 86 | 1013.3 |
| 20260503080106 | 1 | 338 | 0.0 | 4.8 | 0.00 | 0.00 | 0.00 | 86 | 1013.4 |
| 20260503072550 | 1 | 305 | 1.6 | 8.0 | 0.00 | 0.00 | 0.00 | 85 | 1013.3 |
| 20260503072032 | 1 | 46 | 0.0 | 6.4 | 0.00 | 0.00 | 0.00 | 85 | 1013.3 |
| 20260503071509 | 1 | 46 | 1.6 | 6.4 | 0.00 | 0.00 | 0.00 | 85 | 1013.3 |
| 20260503071055 | 1 | 174 | 0.0 | 4.8 | 0.00 | 0.00 | 0.00 | 85 | 1013.3 |
| 20260503070538 | 1 | 171 | 0.0 | 3.2 | 0.00 | 0.00 | 0.00 | 84 | 1013.4 |
| 20260503055049 | 2 | 266 | 0.0 | 3.2 | 0.00 | 0.00 | 0.00 | 81 | 1013.6 |
| 20260503054520 | 2 | 267 | 0.0 | 3.2 | 0.00 | 0.00 | 0.00 | 81 | 1013.5 |
| 20260503054003 | 2 | 267 | 0.0 | 4.8 | 0.00 | 0.00 | 0.00 | 81 | 1013.6 |
| 20260503053553 | 2 | 267 | 0.0 | 4.8 | 0.00 | 0.00 | 0.00 | 80 | 1013.7 |
| 20260503053035 | 2 | 248 | 0.0 | 0.0 | 0.00 | 0.00 | 0.00 | 80 | 1013.7 |
| 20260503052509 | 3 | 248 | 0.0 | 1.6 | 0.00 | 0.00 | 0.00 | 80 | 1013.9 |
| 20260503052058 | 3 | 248 | 0.0 | 1.6 | 0.00 | 0.00 | 0.00 | 80 | 1013.9 |
| 20260503051539 | 3 | 248 | 0.0 | 0.0 | 0.00 | 0.00 | 0.00 | 80 | 1014.0 |
| 20260503051009 | 3 | 248 | 0.0 | 1.6 | 0.00 | 0.00 | 0.00 | 79 | 1014.0 |
| 20260503050605 | 3 | 248 | 0.0 | 3.2 | 0.00 | 0.00 | 0.00 | 79 | 1014.0 |
| 20260503050038 | 3 | 248 | 0.0 | 3.2 | 0.00 | 0.00 | 0.00 | 78 | 1014.0 |